THOR ABLESTAR DEB, 3592

Orbit data source: Space-Track

THOR ABLESTAR DEB, 3592 is space debris in LEO originally from a launch on Thu, 24 Jun 1965 UTC launched from the Air Force Western Test Range (AFWTR). Debris objects in space refer to the collection of defunct objects orbiting the Earth. Examples of debris include non-operational satellites, rocket bodies, and fragments generated from explosions, collisions, or faulty payload assembly.

Loading next visibility...
Identifier
3592, 1965-048F
Orbit
LEO
Country
Flag of USUS
Related business
Manufacturer
Unknown
Mission
Spacecraft
Bus & Motor
Unknown
Mass
Unknown
Launch date (UTC)
1965-06-24 (61 years ago)
Launch vehicle
Unknown
Launch site
Air Force Western Test Range (AFWTR)
Object type
Payload
Rocket body
Debris
Shape & HBR
Unknown shape, 0.1 m
Radar Cross Section
Small (<0.1 m²)

Expand to show TLE details & history
Last TLE update: 1 day ago

TLE from 1 day ago
0 THOR ABLESTAR DEB
1 03592U 65048F   26037.17698448  .00000383  00000-0  47357-3 0  9990
2 03592  89.8792 289.4262 0060995 350.0546 162.5907 13.62647455  2116
Epoch: 2026-02-06T04:14Z
TLE epoch observation values (Epoch: 2026-02-06T04:14:51.459Z)
Latitude
27.1825°
Longitude
-90.66854°
Altitude
1,072.605 km
Speed
7.297 km/s
True Right ascension
07h 17m 27s
True Declination
27° 02' 56"
Sunlit
Object was in full shadow at epoch
Visualization orbit readout
Latitude
Unknown
Longitude
Unknown
Altitude
Unknown
Speed
Unknown
Apparent Right ascension
Unknown
Apparent Declination
Unknown
Sunlit
N/A
Visualization observer readout
Local Sidereal Time
07:59:58
Azimuth
Unknown
Elevation
Unknown
Doppler factor
Unknown
Orbital elements
Apogee altitude
1,068.261 km
Perigee altitude
977.973 km
Semi-major axis
7,401.254 km
Eccentricity
0.0061
Inclination
89.8792°
RAAN
289.4262°
Arg. of periapsis
350.0546°
True anomaly
162.79831°
Mean anomaly
162.5907°
Eccentric anomaly
162.69466°
Mean motion
3.40867 °/min
Orbital period
105.61 mins
BSTAR
0.00047357
Loading maneuver chart data...
Computing Atmospheric mass density...

Documentation

Showing up to 5 results
|